owner,sensor,date,latitude,longitude,vertical_datum,wind_speed,wind_to_direction,wind_speed_of_gust,qcFlag 
NDBC,ioos:station:wmo:42055:1,2019-06-01T00:50:00Z,22.2030,-94.0000,5.0,7.0,-9999.0,9.0,'11111222,11111222,11111222' 
NDBC,ioos:station:wmo:42055:1,2019-06-01T01:50:00Z,22.2030,-94.0000,5.0,7.0,-9999.0,8.0,'11111222,11111222,11111222' 
NDBC,ioos:station:wmo:42055:1,2019-06-01T02:50:00Z,22.2030,-94.0000,5.0,6.0,-9999.0,7.0,'11111222,11111222,11111222' 
NDBC,ioos:station:wmo:42055:1,2019-06-01T03:40:00Z,22.2030,-94.0000,5.0,6.0,-9999.0,8.0,'11111222,11111222,11111222' 
NDBC,ioos:station:wmo:42055:1,2019-06-01T04:50:00Z,22.2030,-94.0000,5.0,6.0,-9999.0,8.0,'11111222,11111222,11111222' 
NDBC,ioos:station:wmo:42055:1,2019-06-01T05:50:00Z,22.2030,-94.0000,5.0,6.0,-9999.0,7.0,'11111222,11111222,11111222' 
NDBC,ioos:station:wmo:42055:1,2019-06-01T06:40:00Z,22.2030,-94.0000,5.0,5.0,-9999.0,6.0,'11111222,11111222,11111222' 
NDBC,ioos:station:wmo:42055:1,2019-06-01T07:00:00Z,22.2030,-94.0000,5.0,5.0,-9999.0,6.0,'11111222,11111222,11111222' 
NDBC,ioos:station:wmo:42055:1,2019-06-01T08:50:00Z,22.2030,-94.0000,5.0,6.0,-9999.0,7.0,'11111222,11111222,11111222' 
NDBC,ioos:station:wmo:42055:1,2019-06-01T09:50:00Z,22.2030,-94.0000,5.0,6.0,-9999.0,8.0,'11111222,11111222,11111222' 
NDBC,ioos:station:wmo:42055:1,2019-06-01T10:50:00Z,22.2030,-94.0000,5.0,7.0,-9999.0,8.0,'11111222,11111222,11111222' 
NDBC,ioos:station:wmo:42055:1,2019-06-01T11:50:00Z,22.2030,-94.0000,5.0,7.0,-9999.0,9.0,'11111222,11111222,11111222' 
NDBC,ioos:station:wmo:42055:1,2019-06-01T12:50:00Z,22.2030,-94.0000,5.0,6.0,-9999.0,8.0,'11111222,11111222,11111222' 
NDBC,ioos:station:wmo:42055:1,2019-06-01T13:50:00Z,22.2030,-94.0000,5.0,7.0,-9999.0,11.0,'11111222,11111222,11111222' 
NDBC,ioos:station:wmo:42055:1,2019-06-01T14:50:00Z,22.2030,-94.0000,5.0,3.0,-9999.0,4.0,'11111222,11111222,11111222' 
NDBC,ioos:station:wmo:42055:1,2019-06-01T15:50:00Z,22.2030,-94.0000,5.0,4.0,-9999.0,5.0,'11111222,11111222,11111222' 
NDBC,ioos:station:wmo:42055:1,2019-06-01T16:50:00Z,22.2030,-94.0000,5.0,5.0,-9999.0,6.0,'11111222,11111222,11111222' 
NDBC,ioos:station:wmo:42055:1,2019-06-01T17:50:00Z,22.2030,-94.0000,5.0,7.0,-9999.0,8.0,'11111222,11111222,11111222' 
NDBC,ioos:station:wmo:42055:1,2019-06-01T18:50:00Z,22.2030,-94.0000,5.0,6.0,-9999.0,8.0,'11111222,11111222,11111222' 
NDBC,ioos:station:wmo:42055:1,2019-06-01T19:50:00Z,22.2030,-94.0000,5.0,6.0,-9999.0,7.0,'11111222,11111222,11111222' 
NDBC,ioos:station:wmo:42055:1,2019-06-01T20:50:00Z,22.2030,-94.0000,5.0,6.0,-9999.0,7.0,'11111222,11111222,11111222' 
NDBC,ioos:station:wmo:42055:1,2019-06-01T21:50:00Z,22.2030,-94.0000,5.0,7.0,-9999.0,8.0,'11111222,11111222,11111222' 
NDBC,ioos:station:wmo:42055:1,2019-06-01T22:50:00Z,22.2030,-94.0000,5.0,4.0,-9999.0,5.0,'11111222,11111222,11111222' 
NDBC,ioos:station:wmo:42055:1,2019-06-01T23:50:00Z,22.2030,-94.0000,5.0,8.0,-9999.0,10.0,'11111222,11111222,11111222' 
NDBC,ioos:station:wmo:42055:1,2019-06-02T00:50:00Z,22.2030,-94.0000,5.0,7.0,-9999.0,8.0,'11111222,11111222,11111222' 
NDBC,ioos:station:wmo:42055:1,2019-06-02T01:50:00Z,22.2030,-94.0000,5.0,7.0,-9999.0,9.0,'11111222,11111222,11111222' 
NDBC,ioos:station:wmo:42055:1,2019-06-02T02:50:00Z,22.2030,-94.0000,5.0,7.0,70.0,9.0,'11111222,11111222,11111222' 
NDBC,ioos:station:wmo:42055:1,2019-06-02T03:50:00Z,22.2030,-94.0000,5.0,9.0,70.0,11.0,'11111222,11111222,11111222' 
NDBC,ioos:station:wmo:42055:1,2019-06-02T04:50:00Z,22.2030,-94.0000,5.0,9.0,-9999.0,11.0,'11111222,11111222,11111222' 
NDBC,ioos:station:wmo:42055:1,2019-06-02T05:50:00Z,22.2030,-94.0000,5.0,10.0,90.0,12.0,'11111222,11111222,11111222' 
NDBC,ioos:station:wmo:42055:1,2019-06-02T06:50:00Z,22.2030,-94.0000,5.0,10.0,-9999.0,12.0,'11111222,11111222,11111222' 
NDBC,ioos:station:wmo:42055:1,2019-06-02T07:50:00Z,22.2030,-94.0000,5.0,9.0,-9999.0,10.0,'11111222,11111222,11111222' 
NDBC,ioos:station:wmo:42055:1,2019-06-02T08:50:00Z,22.2030,-94.0000,5.0,8.0,-9999.0,11.0,'11111222,11111222,11111222' 
NDBC,ioos:station:wmo:42055:1,2019-06-02T09:50:00Z,22.2030,-94.0000,5.0,7.0,-9999.0,8.0,'11111222,11111222,11111222' 
NDBC,ioos:station:wmo:42055:1,2019-06-02T10:50:00Z,22.2030,-94.0000,5.0,9.0,-9999.0,11.0,'11111222,11111222,11111222' 
NDBC,ioos:station:wmo:42055:1,2019-06-02T11:50:00Z,22.2030,-94.0000,5.0,8.0,-9999.0,10.0,'11111222,11111222,11111222' 
NDBC,ioos:station:wmo:42055:1,2019-06-02T12:50:00Z,22.2030,-94.0000,5.0,8.0,-9999.0,10.0,'11111222,11111222,11111222' 
NDBC,ioos:station:wmo:42055:1,2019-06-02T13:40:00Z,22.2030,-94.0000,5.0,9.0,-9999.0,10.0,'11111222,11111222,11111222' 
NDBC,ioos:station:wmo:42055:1,2019-06-02T14:50:00Z,22.2030,-94.0000,5.0,7.0,-9999.0,9.0,'11111222,11111222,11111222' 
NDBC,ioos:station:wmo:42055:1,2019-06-02T15:50:00Z,22.2030,-94.0000,5.0,10.0,-9999.0,15.0,'11111222,11111222,11111222' 
NDBC,ioos:station:wmo:42055:1,2019-06-02T16:50:00Z,22.2030,-94.0000,5.0,9.0,-9999.0,12.0,'11111222,11111222,11111222' 
NDBC,ioos:station:wmo:42055:1,2019-06-02T17:50:00Z,22.2030,-94.0000,5.0,7.0,-9999.0,12.0,'11111222,11111222,11111222' 
NDBC,ioos:station:wmo:42055:1,2019-06-02T18:50:00Z,22.2030,-94.0000,5.0,6.0,-9999.0,9.0,'11111222,11111222,11111222' 
NDBC,ioos:station:wmo:42055:1,2019-06-02T19:50:00Z,22.2030,-94.0000,5.0,8.0,-9999.0,10.0,'11111222,11111222,11111222' 
NDBC,ioos:station:wmo:42055:1,2019-06-02T20:50:00Z,22.2030,-94.0000,5.0,8.0,-9999.0,10.0,'11111222,11111222,11111222' 
NDBC,ioos:station:wmo:42055:1,2019-06-02T21:50:00Z,22.2030,-94.0000,5.0,7.0,-9999.0,8.0,'11111222,11111222,11111222' 
NDBC,ioos:station:wmo:42055:1,2019-06-02T22:50:00Z,22.2030,-94.0000,5.0,7.0,-9999.0,9.0,'11111222,11111222,11111222' 
NDBC,ioos:station:wmo:42055:1,2019-06-02T23:50:00Z,22.2030,-94.0000,5.0,7.0,-9999.0,9.0,'11111222,11111222,11111222' 
NDBC,ioos:station:wmo:42055:1,2019-06-03T00:50:00Z,22.2030,-94.0000,5.0,8.0,80.0,9.0,'11111222,11111222,11111222' 
NDBC,ioos:station:wmo:42055:1,2019-06-03T01:40:00Z,22.2030,-94.0000,5.0,8.0,80.0,9.0,'11111222,11111222,11111222' 
NDBC,ioos:station:wmo:42055:1,2019-06-03T02:50:00Z,22.2030,-94.0000,5.0,11.0,100.0,15.0,'11111222,11111222,11111222' 
NDBC,ioos:station:wmo:42055:1,2019-06-03T03:50:00Z,22.2030,-94.0000,5.0,8.0,70.0,10.0,'11111222,11111222,11111222' 
NDBC,ioos:station:wmo:42055:1,2019-06-03T05:00:00Z,22.2030,-94.0000,5.0,9.0,60.0,12.0,'11111222,11111222,11111222' 
NDBC,ioos:station:wmo:42055:1,2019-06-03T05:50:00Z,22.2030,-94.0000,5.0,11.0,70.0,15.0,'11111222,11111222,11111222' 
NDBC,ioos:station:wmo:42055:1,2019-06-03T06:50:00Z,22.2030,-94.0000,5.0,11.0,90.0,14.0,'11111222,11111222,11111222' 
NDBC,ioos:station:wmo:42055:1,2019-06-03T07:50:00Z,22.2030,-94.0000,5.0,10.0,90.0,12.0,'11111222,11111222,11111222' 
NDBC,ioos:station:wmo:42055:1,2019-06-03T08:40:00Z,22.2030,-94.0000,5.0,9.0,90.0,12.0,'11111222,11111222,11111222' 
NDBC,ioos:station:wmo:42055:1,2019-06-03T09:20:00Z,22.2030,-94.0000,5.0,9.0,-9999.0,11.0,'11111222,11111222,11111222' 
NDBC,ioos:station:wmo:42055:1,2019-06-03T09:40:00Z,22.2030,-94.0000,5.0,9.0,-9999.0,11.0,'11111222,11111222,11111222' 
NDBC,ioos:station:wmo:42055:1,2019-06-03T10:40:00Z,22.2030,-94.0000,5.0,7.0,-9999.0,9.0,'11111222,11111222,11111222' 
NDBC,ioos:station:wmo:42055:1,2019-06-03T11:50:00Z,22.2030,-94.0000,5.0,7.0,-9999.0,9.0,'11111222,11111222,11111222' 
NDBC,ioos:station:wmo:42055:1,2019-06-03T12:30:00Z,22.2030,-94.0000,5.0,7.0,-9999.0,11.0,'11111222,11111222,11111222' 
NDBC,ioos:station:wmo:42055:1,2019-06-03T12:50:00Z,22.2030,-94.0000,5.0,10.0,-9999.0,14.0,'11111222,11111222,11111222' 
NDBC,ioos:station:wmo:42055:1,2019-06-03T13:10:00Z,22.2030,-94.0000,5.0,8.0,-9999.0,12.0,'11111222,11111222,11111222' 
NDBC,ioos:station:wmo:42055:1,2019-06-03T14:50:00Z,22.2030,-94.0000,5.0,8.0,-9999.0,10.0,'11111222,11111222,11111222' 
NDBC,ioos:station:wmo:42055:1,2019-06-03T16:20:00Z,22.2030,-94.0000,5.0,7.0,-9999.0,8.0,'11111222,11111222,11111222' 
NDBC,ioos:station:wmo:42055:1,2019-06-03T16:50:00Z,22.2030,-94.0000,5.0,8.0,-9999.0,10.0,'11111222,11111222,11111222' 
NDBC,ioos:station:wmo:42055:1,2019-06-03T17:20:00Z,22.2030,-94.0000,5.0,7.0,-9999.0,8.0,'11111222,11111222,11111222' 
NDBC,ioos:station:wmo:42055:1,2019-06-03T18:20:00Z,22.2030,-94.0000,5.0,7.0,-9999.0,8.0,'11111222,11111222,11111222' 
NDBC,ioos:station:wmo:42055:1,2019-06-03T19:50:00Z,22.2030,-94.0000,5.0,9.0,-9999.0,10.0,'11111222,11111222,11111222' 
NDBC,ioos:station:wmo:42055:1,2019-06-03T21:00:00Z,22.2030,-94.0000,5.0,9.0,-9999.0,11.0,'11111222,11111222,11111222' 
NDBC,ioos:station:wmo:42055:1,2019-06-03T22:50:00Z,22.2030,-94.0000,5.0,4.0,-9999.0,6.0,'11111222,11111222,11111222' 
NDBC,ioos:station:wmo:42055:1,2019-06-04T00:30:00Z,22.2030,-94.0000,5.0,7.0,130.0,9.0,'11111222,11111222,11111222' 
NDBC,ioos:station:wmo:42055:1,2019-06-04T01:40:00Z,22.2030,-94.0000,5.0,6.0,130.0,8.0,'11111222,11111222,11111222' 
NDBC,ioos:station:wmo:42055:1,2019-06-04T02:50:00Z,22.2030,-94.0000,5.0,7.0,120.0,9.0,'11111222,11111222,11111222' 
NDBC,ioos:station:wmo:42055:1,2019-06-04T03:50:00Z,22.2030,-94.0000,5.0,7.0,110.0,9.0,'11111222,11111222,11111222' 
NDBC,ioos:station:wmo:42055:1,2019-06-04T04:50:00Z,22.2030,-94.0000,5.0,7.0,110.0,10.0,'11111222,11111222,11111222' 
NDBC,ioos:station:wmo:42055:1,2019-06-04T05:50:00Z,22.2030,-94.0000,5.0,6.0,100.0,7.0,'11111222,11111222,11111222' 
NDBC,ioos:station:wmo:42055:1,2019-06-04T06:40:00Z,22.2030,-94.0000,5.0,8.0,-9999.0,10.0,'11111222,11111222,11111222' 
NDBC,ioos:station:wmo:42055:1,2019-06-04T06:50:00Z,22.2030,-94.0000,5.0,8.0,-9999.0,11.0,'11111222,11111222,11111222' 
NDBC,ioos:station:wmo:42055:1,2019-06-04T07:50:00Z,22.2030,-94.0000,5.0,8.0,-9999.0,11.0,'11111222,11111222,11111222' 
NDBC,ioos:station:wmo:42055:1,2019-06-04T09:10:00Z,22.2030,-94.0000,5.0,9.0,-9999.0,10.0,'11111222,11111222,11111222' 
NDBC,ioos:station:wmo:42055:1,2019-06-04T10:50:00Z,22.2030,-94.0000,5.0,10.0,-9999.0,13.0,'11111222,11111222,11111222' 
NDBC,ioos:station:wmo:42055:1,2019-06-04T11:50:00Z,22.2030,-94.0000,5.0,14.0,-9999.0,19.0,'11111222,11111222,11111222' 
NDBC,ioos:station:wmo:42055:1,2019-06-04T12:50:00Z,22.2030,-94.0000,5.0,8.0,-9999.0,12.0,'11111222,11111222,11111222' 
NDBC,ioos:station:wmo:42055:1,2019-06-04T13:40:00Z,22.2030,-94.0000,5.0,10.0,-9999.0,12.0,'11111222,11111222,11111222' 
NDBC,ioos:station:wmo:42055:1,2019-06-04T18:00:00Z,22.2030,-94.0000,5.0,8.0,-9999.0,10.0,'11111222,11111222,11111222' 
NDBC,ioos:station:wmo:42055:1,2019-06-04T18:50:00Z,22.2030,-94.0000,5.0,7.0,-9999.0,9.0,'11111222,11111222,11111222' 
NDBC,ioos:station:wmo:42055:1,2019-06-04T19:50:00Z,22.2030,-94.0000,5.0,7.0,-9999.0,9.0,'11111222,11111222,11111222' 
NDBC,ioos:station:wmo:42055:1,2019-06-04T20:50:00Z,22.2030,-94.0000,5.0,8.0,-9999.0,10.0,'11111222,11111222,11111222' 
NDBC,ioos:station:wmo:42055:1,2019-06-04T21:50:00Z,22.2030,-94.0000,5.0,7.0,-9999.0,8.0,'11111222,11111222,11111222' 
NDBC,ioos:station:wmo:42055:1,2019-06-04T22:50:00Z,22.2030,-94.0000,5.0,7.0,-9999.0,8.0,'11111222,11111222,11111222' 
NDBC,ioos:station:wmo:42055:1,2019-06-04T23:50:00Z,22.2030,-94.0000,5.0,6.0,-9999.0,8.0,'11111222,11111222,11111222' 
NDBC,ioos:station:wmo:42055:1,2019-06-05T00:50:00Z,22.2030,-94.0000,5.0,6.0,120.0,8.0,'11111222,11111222,11111222' 
NDBC,ioos:station:wmo:42055:1,2019-06-05T01:50:00Z,22.2030,-94.0000,5.0,7.0,110.0,9.0,'11111222,11111222,11111222' 
NDBC,ioos:station:wmo:42055:1,2019-06-05T02:50:00Z,22.2030,-94.0000,5.0,7.0,110.0,9.0,'11111222,11111222,11111222' 
NDBC,ioos:station:wmo:42055:1,2019-06-05T03:50:00Z,22.2030,-94.0000,5.0,8.0,110.0,10.0,'11111222,11111222,11111222' 
NDBC,ioos:station:wmo:42055:1,2019-06-05T04:50:00Z,22.2030,-94.0000,5.0,7.0,-9999.0,9.0,'11111222,11111222,11111222' 
NDBC,ioos:station:wmo:42055:1,2019-06-05T05:50:00Z,22.2030,-94.0000,5.0,8.0,-9999.0,11.0,'11111222,11111222,11111222' 
NDBC,ioos:station:wmo:42055:1,2019-06-05T06:50:00Z,22.2030,-94.0000,5.0,9.0,-9999.0,11.0,'11111222,11111222,11111222' 
NDBC,ioos:station:wmo:42055:1,2019-06-05T07:50:00Z,22.2030,-94.0000,5.0,10.0,-9999.0,12.0,'11111222,11111222,11111222' 
NDBC,ioos:station:wmo:42055:1,2019-06-05T08:50:00Z,22.2030,-94.0000,5.0,9.0,-9999.0,10.0,'11111222,11111222,11111222' 
NDBC,ioos:station:wmo:42055:1,2019-06-05T09:50:00Z,22.2030,-94.0000,5.0,9.0,-9999.0,11.0,'11111222,11111222,11111222' 
NDBC,ioos:station:wmo:42055:1,2019-06-05T10:50:00Z,22.2030,-94.0000,5.0,9.0,-9999.0,11.0,'11111222,11111222,11111222' 
NDBC,ioos:station:wmo:42055:1,2019-06-05T11:50:00Z,22.2030,-94.0000,5.0,10.0,-9999.0,12.0,'11111222,11111222,11111222' 
NDBC,ioos:station:wmo:42055:1,2019-06-05T12:50:00Z,22.2030,-94.0000,5.0,9.0,-9999.0,11.0,'11111222,11111222,11111222' 
NDBC,ioos:station:wmo:42055:1,2019-06-05T13:50:00Z,22.2030,-94.0000,5.0,10.0,-9999.0,13.0,'11111222,11111222,11111222' 
NDBC,ioos:station:wmo:42055:1,2019-06-05T14:50:00Z,22.2030,-94.0000,5.0,12.0,-9999.0,15.0,'11111222,11111222,11111222' 
NDBC,ioos:station:wmo:42055:1,2019-06-05T16:00:00Z,22.2030,-94.0000,5.0,10.0,-9999.0,13.0,'11111222,11111222,11111222' 
NDBC,ioos:station:wmo:42055:1,2019-06-05T16:50:00Z,22.2030,-94.0000,5.0,11.0,-9999.0,13.0,'11111222,11111222,11111222' 
NDBC,ioos:station:wmo:42055:1,2019-06-05T18:00:00Z,22.2030,-94.0000,5.0,10.0,-9999.0,12.0,'11111222,11111222,11111222' 
NDBC,ioos:station:wmo:42055:1,2019-06-05T19:00:00Z,22.2030,-94.0000,5.0,10.0,-9999.0,12.0,'11111222,11111222,11111222' 
NDBC,ioos:station:wmo:42055:1,2019-06-05T20:00:00Z,22.2030,-94.0000,5.0,8.0,-9999.0,10.0,'11111222,11111222,11111222' 
NDBC,ioos:station:wmo:42055:1,2019-06-05T21:00:00Z,22.2030,-94.0000,5.0,8.0,-9999.0,10.0,'11111222,11111222,11111222' 
NDBC,ioos:station:wmo:42055:1,2019-06-05T21:50:00Z,22.2030,-94.0000,5.0,7.0,-9999.0,8.0,'11111222,11111222,11111222' 
NDBC,ioos:station:wmo:42055:1,2019-06-05T23:00:00Z,22.2030,-94.0000,5.0,7.0,-9999.0,9.0,'11111222,11111222,11111222' 
NDBC,ioos:station:wmo:42055:1,2019-06-05T23:50:00Z,22.2030,-94.0000,5.0,8.0,-9999.0,10.0,'11111222,11111222,11111222' 
NDBC,ioos:station:wmo:42055:1,2019-06-06T00:50:00Z,22.2030,-94.0000,5.0,8.0,120.0,10.0,'11111222,11111222,11111222' 
NDBC,ioos:station:wmo:42055:1,2019-06-06T01:50:00Z,22.2030,-94.0000,5.0,9.0,120.0,12.0,'11111222,11111222,11111222' 
NDBC,ioos:station:wmo:42055:1,2019-06-06T02:50:00Z,22.2030,-94.0000,5.0,8.0,120.0,9.0,'11111222,11111222,11111222' 
NDBC,ioos:station:wmo:42055:1,2019-06-06T03:50:00Z,22.2030,-94.0000,5.0,7.0,120.0,8.0,'11111222,11111222,11111222' 
NDBC,ioos:station:wmo:42055:1,2019-06-06T04:50:00Z,22.2030,-94.0000,5.0,6.0,120.0,8.0,'11111222,11111222,11111222' 
NDBC,ioos:station:wmo:42055:1,2019-06-06T05:50:00Z,22.2030,-94.0000,5.0,6.0,-9999.0,8.0,'11111222,11111222,11111222' 
NDBC,ioos:station:wmo:42055:1,2019-06-06T06:50:00Z,22.2030,-94.0000,5.0,9.0,-9999.0,10.0,'11111222,11111222,11111222' 
NDBC,ioos:station:wmo:42055:1,2019-06-06T07:50:00Z,22.2030,-94.0000,5.0,9.0,-9999.0,11.0,'11111222,11111222,11111222' 
NDBC,ioos:station:wmo:42055:1,2019-06-06T08:50:00Z,22.2030,-94.0000,5.0,9.0,-9999.0,11.0,'11111222,11111222,11111222' 
NDBC,ioos:station:wmo:42055:1,2019-06-06T09:50:00Z,22.2030,-94.0000,5.0,7.0,-9999.0,8.0,'11111222,11111222,11111222' 
NDBC,ioos:station:wmo:42055:1,2019-06-06T10:50:00Z,22.2030,-94.0000,5.0,5.0,-9999.0,7.0,'11111222,11111222,11111222' 
NDBC,ioos:station:wmo:42055:1,2019-06-06T11:50:00Z,22.2030,-94.0000,5.0,5.0,-9999.0,7.0,'11111222,11111222,11111222' 
NDBC,ioos:station:wmo:42055:1,2019-06-06T12:50:00Z,22.2030,-94.0000,5.0,5.0,-9999.0,6.0,'11111222,11111222,11111222' 
NDBC,ioos:station:wmo:42055:1,2019-06-06T13:50:00Z,22.2030,-94.0000,5.0,6.0,-9999.0,7.0,'11111222,11111222,11111222' 
NDBC,ioos:station:wmo:42055:1,2019-06-06T14:50:00Z,22.2030,-94.0000,5.0,6.0,-9999.0,8.0,'11111222,11111222,11111222' 
NDBC,ioos:station:wmo:42055:1,2019-06-06T15:50:00Z,22.2030,-94.0000,5.0,7.0,-9999.0,9.0,'11111222,11111222,11111222' 
NDBC,ioos:station:wmo:42055:1,2019-06-06T16:50:00Z,22.2030,-94.0000,5.0,7.0,-9999.0,9.0,'11111222,11111222,11111222' 
NDBC,ioos:station:wmo:42055:1,2019-06-06T17:50:00Z,22.2030,-94.0000,5.0,8.0,-9999.0,10.0,'11111222,11111222,11111222' 
NDBC,ioos:station:wmo:42055:1,2019-06-06T19:00:00Z,22.2030,-94.0000,5.0,7.0,-9999.0,9.0,'11111222,11111222,11111222' 
NDBC,ioos:station:wmo:42055:1,2019-06-06T19:40:00Z,22.2030,-94.0000,5.0,7.0,-9999.0,9.0,'11111222,11111222,11111222' 
NDBC,ioos:station:wmo:42055:1,2019-06-06T20:50:00Z,22.2030,-94.0000,5.0,7.0,-9999.0,9.0,'11111222,11111222,11111222' 
NDBC,ioos:station:wmo:42055:1,2019-06-06T21:50:00Z,22.2030,-94.0000,5.0,7.0,-9999.0,8.0,'11111222,11111222,11111222' 
NDBC,ioos:station:wmo:42055:1,2019-06-06T22:50:00Z,22.2030,-94.0000,5.0,7.0,-9999.0,9.0,'11111222,11111222,11111222' 
NDBC,ioos:station:wmo:42055:1,2019-06-06T23:50:00Z,22.2030,-94.0000,5.0,7.0,-9999.0,9.0,'11111222,11111222,11111222' 
NDBC,ioos:station:wmo:42055:1,2019-06-07T00:50:00Z,22.2030,-94.0000,5.0,6.0,150.0,7.0,'11111222,11111222,11111222' 
NDBC,ioos:station:wmo:42055:1,2019-06-07T01:50:00Z,22.2030,-94.0000,5.0,6.0,140.0,7.0,'11111222,11111222,11111222' 
NDBC,ioos:station:wmo:42055:1,2019-06-07T02:50:00Z,22.2030,-94.0000,5.0,5.0,140.0,7.0,'11111222,11111222,11111222' 
NDBC,ioos:station:wmo:42055:1,2019-06-07T03:50:00Z,22.2030,-94.0000,5.0,6.0,140.0,8.0,'11111222,11111222,11111222' 
NDBC,ioos:station:wmo:42055:1,2019-06-07T04:50:00Z,22.2030,-94.0000,5.0,4.0,140.0,5.0,'11111222,11111222,11111222' 
NDBC,ioos:station:wmo:42055:1,2019-06-07T05:50:00Z,22.2030,-94.0000,5.0,4.0,140.0,5.0,'11111222,11111222,11111222' 
NDBC,ioos:station:wmo:42055:1,2019-06-07T06:50:00Z,22.2030,-94.0000,5.0,2.0,90.0,3.0,'11111222,11111222,11111222' 
NDBC,ioos:station:wmo:42055:1,2019-06-07T07:50:00Z,22.2030,-94.0000,5.0,3.0,-9999.0,3.0,'11111222,11111222,11111222' 
NDBC,ioos:station:wmo:42055:1,2019-06-07T08:50:00Z,22.2030,-94.0000,5.0,5.0,-9999.0,6.0,'11111222,11111222,11111222' 
NDBC,ioos:station:wmo:42055:1,2019-06-07T09:50:00Z,22.2030,-94.0000,5.0,6.0,-9999.0,7.0,'11111222,11111222,11111222' 
NDBC,ioos:station:wmo:42055:1,2019-06-07T10:50:00Z,22.2030,-94.0000,5.0,7.0,-9999.0,9.0,'11111222,11111222,11111222' 
NDBC,ioos:station:wmo:42055:1,2019-06-07T11:50:00Z,22.2030,-94.0000,5.0,6.0,-9999.0,8.0,'11111222,11111222,11111222' 
NDBC,ioos:station:wmo:42055:1,2019-06-07T12:50:00Z,22.2030,-94.0000,5.0,6.0,-9999.0,7.0,'11111222,11111222,11111222' 
NDBC,ioos:station:wmo:42055:1,2019-06-07T13:40:00Z,22.2030,-94.0000,5.0,4.0,-9999.0,5.0,'11111222,11111222,11111222' 
NDBC,ioos:station:wmo:42055:1,2019-06-07T14:50:00Z,22.2030,-94.0000,5.0,2.0,-9999.0,3.0,'11111222,11111222,11111222' 
NDBC,ioos:station:wmo:42055:1,2019-06-07T15:50:00Z,22.2030,-94.0000,5.0,3.0,-9999.0,4.0,'11111222,11111222,11111222' 
NDBC,ioos:station:wmo:42055:1,2019-06-07T16:50:00Z,22.2030,-94.0000,5.0,4.0,-9999.0,5.0,'11111222,11111222,11111222' 
NDBC,ioos:station:wmo:42055:1,2019-06-07T17:50:00Z,22.2030,-94.0000,5.0,4.0,-9999.0,5.0,'11111222,11111222,11111222' 
NDBC,ioos:station:wmo:42055:1,2019-06-07T18:50:00Z,22.2030,-94.0000,5.0,4.0,-9999.0,4.0,'11111222,11111222,11111222' 
NDBC,ioos:station:wmo:42055:1,2019-06-07T19:50:00Z,22.2030,-94.0000,5.0,4.0,-9999.0,5.0,'11111222,11111222,11111222' 
NDBC,ioos:station:wmo:42055:1,2019-06-07T20:50:00Z,22.2030,-94.0000,5.0,5.0,-9999.0,5.0,'11111222,11111222,11111222' 
NDBC,ioos:station:wmo:42055:1,2019-06-07T21:50:00Z,22.2030,-94.0000,5.0,5.0,-9999.0,6.0,'11111222,11111222,11111222' 
NDBC,ioos:station:wmo:42055:1,2019-06-07T22:50:00Z,22.2030,-94.0000,5.0,5.0,-9999.0,6.0,'11111222,11111222,11111222' 
NDBC,ioos:station:wmo:42055:1,2019-06-07T23:50:00Z,22.2030,-94.0000,5.0,4.0,-9999.0,5.0,'11111222,11111222,11111222' 
NDBC,ioos:station:wmo:42055:1,2019-06-08T00:50:00Z,22.2030,-94.0000,5.0,3.0,140.0,4.0,'11111222,11111222,11111222' 
NDBC,ioos:station:wmo:42055:1,2019-06-08T01:50:00Z,22.2030,-94.0000,5.0,3.0,120.0,4.0,'11111222,11111222,11111222' 
NDBC,ioos:station:wmo:42055:1,2019-06-08T02:50:00Z,22.2030,-94.0000,5.0,3.0,120.0,4.0,'11111222,11111222,11111222' 
NDBC,ioos:station:wmo:42055:1,2019-06-08T03:50:00Z,22.2030,-94.0000,5.0,3.0,110.0,3.0,'11111222,11111222,11111222' 
NDBC,ioos:station:wmo:42055:1,2019-06-08T04:50:00Z,22.2030,-94.0000,5.0,4.0,130.0,4.0,'11111222,11111222,11111222' 
NDBC,ioos:station:wmo:42055:1,2019-06-08T05:50:00Z,22.2030,-94.0000,5.0,5.0,130.0,7.0,'11111222,11111222,11111222' 
NDBC,ioos:station:wmo:42055:1,2019-06-08T06:50:00Z,22.2030,-94.0000,5.0,6.0,-9999.0,7.0,'11111222,11111222,11111222' 
NDBC,ioos:station:wmo:42055:1,2019-06-08T07:50:00Z,22.2030,-94.0000,5.0,5.0,140.0,6.0,'11111222,11111222,11111222' 
NDBC,ioos:station:wmo:42055:1,2019-06-08T08:50:00Z,22.2030,-94.0000,5.0,4.0,-9999.0,5.0,'11111222,11111222,11111222' 
NDBC,ioos:station:wmo:42055:1,2019-06-08T10:00:00Z,22.2030,-94.0000,5.0,4.0,-9999.0,5.0,'11111222,11111222,11111222' 
NDBC,ioos:station:wmo:42055:1,2019-06-08T10:50:00Z,22.2030,-94.0000,5.0,4.0,-9999.0,5.0,'11111222,11111222,11111222' 
NDBC,ioos:station:wmo:42055:1,2019-06-08T11:50:00Z,22.2030,-94.0000,5.0,6.0,-9999.0,7.0,'11111222,11111222,11111222' 
NDBC,ioos:station:wmo:42055:1,2019-06-08T12:50:00Z,22.2030,-94.0000,5.0,6.0,-9999.0,7.0,'11111222,11111222,11111222' 
NDBC,ioos:station:wmo:42055:1,2019-06-08T13:50:00Z,22.2030,-94.0000,5.0,7.0,-9999.0,9.0,'11111222,11111222,11111222' 
NDBC,ioos:station:wmo:42055:1,2019-06-08T14:50:00Z,22.2030,-94.0000,5.0,7.0,-9999.0,9.0,'11111222,11111222,11111222' 
NDBC,ioos:station:wmo:42055:1,2019-06-08T15:50:00Z,22.2030,-94.0000,5.0,5.0,-9999.0,6.0,'11111222,11111222,11111222' 
NDBC,ioos:station:wmo:42055:1,2019-06-08T17:00:00Z,22.2030,-94.0000,5.0,4.0,-9999.0,5.0,'11111222,11111222,11111222' 
NDBC,ioos:station:wmo:42055:1,2019-06-08T18:00:00Z,22.2030,-94.0000,5.0,4.0,-9999.0,5.0,'11111222,11111222,11111222' 
NDBC,ioos:station:wmo:42055:1,2019-06-08T18:50:00Z,22.2030,-94.0000,5.0,5.0,-9999.0,6.0,'11111222,11111222,11111222' 
NDBC,ioos:station:wmo:42055:1,2019-06-09T00:40:00Z,22.2030,-94.0000,5.0,2.0,30.0,3.0,'11111222,11111222,11111222' 
NDBC,ioos:station:wmo:42055:1,2019-06-09T02:00:00Z,22.2030,-94.0000,5.0,3.0,50.0,4.0,'11111222,11111222,11111222' 
NDBC,ioos:station:wmo:42055:1,2019-06-09T02:50:00Z,22.2030,-94.0000,5.0,4.0,50.0,5.0,'11111222,11111222,11111222' 
NDBC,ioos:station:wmo:42055:1,2019-06-09T03:50:00Z,22.2030,-94.0000,5.0,4.0,70.0,5.0,'11111222,11111222,11111222' 
NDBC,ioos:station:wmo:42055:1,2019-06-09T04:50:00Z,22.2030,-94.0000,5.0,4.0,80.0,5.0,'11111222,11111222,11111222' 
NDBC,ioos:station:wmo:42055:1,2019-06-09T05:50:00Z,22.2030,-94.0000,5.0,5.0,-9999.0,6.0,'11111222,11111222,11111222' 
NDBC,ioos:station:wmo:42055:1,2019-06-09T06:50:00Z,22.2030,-94.0000,5.0,5.0,-9999.0,5.0,'11111222,11111222,11111222' 
NDBC,ioos:station:wmo:42055:1,2019-06-09T07:50:00Z,22.2030,-94.0000,5.0,4.0,-9999.0,5.0,'11111222,11111222,11111222' 
NDBC,ioos:station:wmo:42055:1,2019-06-09T08:50:00Z,22.2030,-94.0000,5.0,4.0,-9999.0,5.0,'11111222,11111222,11111222' 
NDBC,ioos:station:wmo:42055:1,2019-06-09T09:50:00Z,22.2030,-94.0000,5.0,4.0,-9999.0,5.0,'11111222,11111222,11111222' 
NDBC,ioos:station:wmo:42055:1,2019-06-09T10:50:00Z,22.2030,-94.0000,5.0,4.0,-9999.0,5.0,'11111222,11111222,11111222' 
NDBC,ioos:station:wmo:42055:1,2019-06-09T11:50:00Z,22.2030,-94.0000,5.0,5.0,-9999.0,6.0,'11111222,11111222,11111222' 
NDBC,ioos:station:wmo:42055:1,2019-06-09T12:50:00Z,22.2030,-94.0000,5.0,7.0,-9999.0,9.0,'11111222,11111222,11111222' 
NDBC,ioos:station:wmo:42055:1,2019-06-09T13:50:00Z,22.2030,-94.0000,5.0,8.0,-9999.0,9.0,'11111222,11111222,11111222' 
NDBC,ioos:station:wmo:42055:1,2019-06-09T14:50:00Z,22.2030,-94.0000,5.0,7.0,-9999.0,8.0,'11111222,11111222,11111222' 
NDBC,ioos:station:wmo:42055:1,2019-06-09T15:50:00Z,22.2030,-94.0000,5.0,5.0,-9999.0,7.0,'11111222,11111222,11111222' 
NDBC,ioos:station:wmo:42055:1,2019-06-09T16:50:00Z,22.2030,-94.0000,5.0,5.0,-9999.0,5.0,'11111222,11111222,11111222' 
NDBC,ioos:station:wmo:42055:1,2019-06-09T17:50:00Z,22.2030,-94.0000,5.0,3.0,-9999.0,4.0,'11111222,11111222,11111222' 